This is the latest recevied weather packets stored in our database for station/object N7MLR. If no packets are shown the sender has not sent any weather packets the latest 10 day(s).
| Time | Temp. | Humidity | Pressure | Rain* | Wind** | Luminosity | Snow |
|---|---|---|---|---|---|---|---|
| 1777759200 | 22.78° C | 41% | 1019.3 hPa | 0 mm | - | 66 W/m² | - |
| 1777758897 | 22.78° C | 42% | 1019.5 hPa | 0 mm | - | 139 W/m² | - |
| 1777758594 | 23.33° C | 41% | 1019.5 hPa | 0 mm | - | 503 W/m² | - |
| 1777758291 | 23.33° C | 43% | 1019.5 hPa | 0 mm | - | 517 W/m² | - |
| 1777757988 | 23.33° C | 40% | 1019.9 hPa | 0 mm | - | 516 W/m² | - |
| 1777757685 | 22.78° C | 42% | 1019.8 hPa | 0 mm | - | 532 W/m² | - |
| 1777757383 | 22.78° C | 44% | 1019.6 hPa | 0 mm | - | 540 W/m² | - |
| 1777757082 | 23.33° C | 41% | 1019.8 hPa | 0 mm | - | 570 W/m² | - |
| 1777756779 | 22.78° C | 43% | 1019.9 hPa | 0 mm | - | 574 W/m² | - |
| 1777756474 | 22.78° C | 43% | 1020 hPa | 0 mm | - | 599 W/m² | - |
| 1777756172 | 23.33° C | 42% | 1020.2 hPa | 0 mm | - | 606 W/m² | - |
| 1777755868 | 22.78° C | 45% | 1020.3 hPa | 0 mm | - | 607 W/m² | - |
| 1777755566 | 22.22° C | 45% | 1020.3 hPa | 0 mm | - | 633 W/m² | - |
| 1777755262 | 22.78° C | 44% | 1020.2 hPa | 0 mm | - | 647 W/m² | - |
| 1777754960 | 22.78° C | 44% | 1020.2 hPa | 0 mm | - | 610 W/m² | - |
| 1777754656 | 22.78° C | 42% | 1020.3 hPa | 0 mm | - | 638 W/m² | - |
| 1777754354 | 22.78° C | 44% | 1020.3 hPa | 0 mm | - | 651 W/m² | - |
| 1777754051 | 22.78° C | 44% | 1020.6 hPa | 0 mm | - | 642 W/m² | - |
| 1777753747 | 22.22° C | 43% | 1020.8 hPa | 0 mm | - | 665 W/m² | - |
| 1777753444 | 22.22° C | 46% | 1020.7 hPa | 0 mm | - | 688 W/m² | - |
| 1777753142 | 22.78° C | 45% | 1020.6 hPa | 0 mm | - | 688 W/m² | - |
| 1777752838 | 23.33° C | 44% | 1020.7 hPa | 0 mm | - | 705 W/m² | - |
| 1777752535 | 22.22° C | 45% | 1020.7 hPa | 0 mm | - | 713 W/m² | - |
| 1777752230 | 22.78° C | 46% | 1021 hPa | 0 mm | - | 722 W/m² | - |
| 1777751928 | 22.22° C | 44% | 1020.8 hPa | 0 mm | - | 704 W/m² | - |
* Rain latest hour (hover to see other rain measurements)
** Current wind speed in m/s (hover to see current wind gust speed)